Location: Courcelles
(49.2596°N, 1.7419°E)
Time: 08:19:53
(UTC+00:00)

Nadezhda 4 Rocket - Pass Details

Date: 17 November 2025
Orbit: 948 x 991 km, 82.9° (Epoch: 13 December)

Event Time Altitude Azimuth Distance (km) Brightness Sun altitude
Rises 18:11:06 0° 350° (N) 3,708 7.1 -19.7°
Reaches altitude 10° 18:13:38 10° 351° (N) 2,751 6.4 -20.1°
Maximum altitude 18:19:58 90° 88° (E) 984 3.9 -21.2°
Drops below altitude 10° 18:26:11 10° 173° (S) 2,704 6.3 -22.2°
Sets 18:28:39 0° 173° (S) 3,640 7.0 -22.6°
